Meteo Giornale » Osservazioni meteo Stati Uniti (USA) » Sitka Sitka
ore: 10:53 - Osservazioni Meteo Sitka Sitka
Lat. 57° 2' N Lon. 135° 22' W Alt. 6 metri s.l.m.
13 °C
Pioggia Foschia
Temp. 24 Ore
12 °C
17 °C
Est/Sud-Est
11.1 Km/h
Dew point 11 °C
Umidità 87 %
Visibilità 6 Km
Il sole sorge alle ore 06:02
Il sole tramonta alle ore 20:00
| Data e Ora | Cielo e Fenomeni | T °C | DP °C | Um. % | Pres. hPa | Vis. km | Vento km/h | |
|---|---|---|---|---|---|---|---|---|
| Oggi h: 10:53 | Pioggia Foschia | 13 | 11 | 87 | 1003 | 6 | E/SE 11.1 | |
| Oggi h: 10:50 | Pioggia Foschia | 13 | 11 | 87 | 1003 | 2 | E/SE 13 | |
| Oggi h: 09:53 | Foschia | 14 | 11 | 82 | 1003 | 11 | E/SE 13 | |
| Oggi h: 08:53 | Pioggia Foschia | 12 | 11 | 93 | 1004 | 10 | E 9.3 | |
| Oggi h: 08:33 | Foschia | 12 | 11 | 93 | 1004 | 10 | E 11.1 | |
| Oggi h: 08:01 | Pioggia | 12 | 11 | 93 | 1004 | 5 | SE 11.1 | |
| Oggi h: 07:53 | Pioggia Foschia | 12 | 11 | 93 | 1004 | 2 | E/SE 7.4 | |
| Oggi h: 07:51 | Pioggia Foschia | 12 | 11 | 93 | 1004 | 5 | E/SE 9.3 | |
| Oggi h: 07:38 | Pioggia Foschia | 13 | 11 | 87 | 1005 | 2 | E 13 | |
| Oggi h: 07:22 | Pioggia Foschia | 13 | 11 | 87 | 1005 | 5 | E/SE 13 | |
| Oggi h: 07:16 | Pioggia Foschia | 13 | 11 | 87 | 1005 | 5 | E/SE 14.8 | |
| Oggi h: 07:07 | Pioggia Foschia | 13 | 11 | 87 | 1005 | 6 | E/SE 7.4 | |
| Oggi h: 06:53 | Pioggia Foschia | 13 | 11 | 87 | 1005 | 6 | E 9.3 | |
| Oggi h: 06:18 | Coperto | 13 | 11 | 87 | 1005 | 13 | E 13 | |
| Oggi h: 06:08 | Coperto | 13 | 11 | 87 | 1005 | 13 | E 11.1 | |
| Oggi h: 06:00 | Coperto | 13 | 11 | 87 | 1005 | 13 | E/SE 9.3 | |
| Oggi h: 05:53 | Molto Nuvoloso | 13 | 11 | 87 | 1005 | 13 | E 13 | |
| Oggi h: 04:53 | Coperto | 13 | 11 | 87 | 1006 | 13 | E 14.8 | |
| Oggi h: 04:04 | Foschia | 13 | 12 | 93 | 1006 | 10 | E 11.1 | |
| Oggi h: 03:53 | Coperto | 13 | 12 | 93 | 1007 | 11 | E/SE 13 | |
| Oggi h: 03:35 | Coperto | 13 | 12 | 93 | 1007 | 11 | E/SE 9.3 | |
| Oggi h: 02:53 | Coperto | 13 | 12 | 93 | 1007 | 11 | E 7.4 | |
| Oggi h: 02:37 | Pioggia Foschia | 13 | 12 | 93 | 1007 | 8 | E 9.3 | |
| Oggi h: 02:19 | Coperto | 13 | 12 | 93 | 1008 | 13 | S/SE 7.4 | |
| Oggi h: 01:53 | Coperto | 13 | 12 | 93 | 1008 | 13 | N 5.5 | |
| Oggi h: 01:06 | Coperto | 13 | 12 | 93 | 1008 | 13 | N 0 | |
| Oggi h: 00:53 | Coperto | 13 | 12 | 93 | 1008 | 13 | N 5.5 | |
| Oggi h: 00:00 | Coperto | 13 | 12 | 93 | 1009 | 13 | E/SE 9.3 | |
| Ieri h: 23:53 | Coperto | 13 | 12 | 93 | 1009 | 13 | SE 9.3 | |
| Ieri h: 22:53 | Coperto | 13 | 12 | 93 | 1009 | 13 | E/SE 11.1 | |
| Ieri h: 21:53 | Coperto | 14 | 12 | 87 | 1009 | 13 | E 7.4 | |
| Ieri h: 20:53 | Coperto | 14 | 12 | 87 | 1010 | 13 | N 5.5 | |
| Ieri h: 19:53 | Foschia | 14 | 13 | 93 | 1010 | 10 | S/SO 7.4 | |
| Ieri h: 18:53 | Foschia | 14 | 12 | 87 | 1010 | 14 | S 9.3 | |
| Ieri h: 17:53 | Foschia | 14 | 12 | 87 | 1010 | 14 | S 11.1 | |
| Ieri h: 16:53 | Foschia | 15 | 12 | 82 | 1010 | 10 | S/SO 11.1 | |
| Ieri h: 15:53 | Foschia | 16 | 12 | 77 | 1010 | 14 | SO 11.1 | |
| Ieri h: 14:53 | Foschia | 16 | 12 | 77 | 1010 | 10 | S/SO 9.3 | |
| Ieri h: 13:53 | Foschia | 17 | 12 | 72 | 1010 | 10 | SO 9.3 | |
| Ieri h: 12:53 | Foschia | 16 | 12 | 77 | 1010 | 14 | SO 13 | |
| Ieri h: 11:58 | Foschia | 14 | 11 | 82 | 1009 | 10 | N 5.5 | |
| Ieri h: 11:53 | Foschia | 15 | 12 | 82 | 1009 | 10 | N 0 | |



